Location: Poughquag
(41.6090°N, 73.6820°W)
Time: 01:27:02
(UTC-05:00)

Vanguard 1 Rocket - All Passes

Search period start: 29 November 2023 00:00
Search period end: 09 December 2023 00:00
Orbit: 656 x 4218 km, 34.3° (Epoch: 28 November)

Date Brightness Start Highest point End Pass type
(mag) Time Alt. Az. Time Alt. Az. Time Alt. Az.
29 Nov - 04:15:52 10° SSW 04:32:15 29° SSE 04:42:39 10° E visible
29 Nov - 06:44:22 10° SW 07:00:01 49° SSE 07:08:14 10° E daylight
29 Nov - 09:15:25 10° W 09:26:03 51° S 09:31:53 10° ESE daylight
29 Nov - 11:45:19 10° W 11:50:11 21° SSW 11:53:52 10° SSE daylight
30 Nov - 03:03:56 10° S 03:18:49 22° SE 03:29:33 10° ESE visible
30 Nov - 05:29:38 10° SW 05:47:20 43° SSE 05:57:07 10° E visible
30 Nov - 08:00:41 10° WSW 08:14:19 56° S 08:21:22 10° ESE daylight
30 Nov - 10:31:29 10° W 10:39:21 36° SSW 10:44:16 10° SE daylight
01 Dec - 01:55:07 10° SSE 02:05:11 14° SE 02:13:39 10° ESE visible
01 Dec - 04:15:30 10° SSW 04:34:10 36° SSE 04:45:28 10° E visible
01 Dec - 06:45:29 10° WSW 07:02:05 55° S 07:10:37 10° E daylight
01 Dec - 09:17:11 10° W 09:28:08 49° SSW 09:34:07 10° ESE daylight
01 Dec - 11:47:53 10° WSW 11:52:01 17° SW 11:55:16 10° S daylight
02 Dec - 03:02:36 10° SSW 03:20:36 28° SSE 03:32:56 10° E visible
02 Dec - 05:30:15 10° SW 05:49:18 50° SSE 05:59:34 10° E visible
02 Dec - 08:02:12 10° WSW 08:16:24 58° S 08:23:40 10° ESE daylight
02 Dec - 10:33:30 10° W 10:41:18 31° SSW 10:46:13 10° SSE daylight
03 Dec - 01:51:44 10° S 02:06:51 20° SE 02:18:42 10° ESE visible
03 Dec - 04:15:34 10° SW 04:36:00 43° SSE 04:48:03 10° E visible
03 Dec - 06:46:42 10° WSW 07:04:07 59° S 07:12:56 10° E daylight
03 Dec - 09:18:56 10° W 09:30:09 46° SSW 09:36:17 10° SE daylight
03 Dec - 11:50:59 10° WSW 11:53:43 12° SW 11:56:03 10° SSW daylight
04 Dec - 00:45:52 10° SSE 00:53:05 12° SE 00:59:43 10° ESE visible
04 Dec - 03:01:57 10° SSW 03:22:17 35° SSE 03:35:49 10° E visible
04 Dec - 05:31:05 10° WSW 05:51:14 56° SSE 06:01:55 10° E visible
04 Dec - 08:03:46 10° W 08:18:26 58° S 08:25:55 10° ESE daylight
04 Dec - 10:35:36 10° W 10:43:06 26° SW 10:47:58 10° SSE daylight
05 Dec - 01:49:58 10° S 02:08:22 26° SE 02:22:21 10° E visible
05 Dec - 04:15:57 10° SW 04:37:47 50° SSE 04:50:28 10° E visible
05 Dec - 06:48:01 10° WSW 07:06:06 62° S 07:15:14 10° ESE daylight
05 Dec - 09:20:43 10° W 09:32:03 42° SSW 09:38:20 10° SE daylight
06 Dec - 00:40:43 10° SSE 00:54:30 17° SE 01:06:26 10° ESE visible
06 Dec - 03:01:46 10° SSW 03:23:53 42° SSE 03:38:24 10° E visible
06 Dec - 05:32:06 10° WSW 05:53:07 61° S 06:04:12 10° E visible
06 Dec - 08:05:20 10° W 08:20:24 56° SSW 08:28:06 10° ESE daylight
06 Dec - 10:37:50 10° W 10:44:46 22° SW 10:49:29 10° S daylight
07 Dec - 01:49:03 10° SSW 02:09:48 33° SE 02:25:22 10° E visible
07 Dec - 04:16:35 10° SW 04:39:32 56° SSE 04:52:45 10° E visible
07 Dec - 06:49:24 10° W 07:08:02 63° S 07:17:27 10° ESE daylight
07 Dec - 09:22:31 10° W 09:33:50 37° SSW 09:40:15 10° SE daylight
08 Dec - 00:38:21 10° S 00:55:45 23° SE 01:10:38 10° E visible
08 Dec - 03:02:00 10° SW 03:25:27 48° SSE 03:40:46 10° E visible
08 Dec - 05:33:16 10° WSW 05:54:59 64° S 06:06:26 10° E visible
08 Dec - 08:06:55 10° W 08:22:16 52° SSW 08:30:12 10° SE daylight
08 Dec - 10:40:22 10° W 10:46:17 17° SW 10:50:37 10° S daylight
